Tracking 30923 objects as of 30-Jun-2025
HD Live streaming from Space Station
objects crossing your sky now

PICOSAT 6

Track PICOSAT 6 now!
10-day predictions
PICOSAT 6 is classified as:


NORAD ID: 26094
Int'l Code: 2000-004M
Perigee: 721.0 km
Apogee: 767.7 km
Inclination: 100.2 °
Period: 99.6 minutes
Semi major axis: 7115 km
RCS: 0.0137 m2 (small)
Launch date: January 27, 2000
Source: United States (US)
Launch site: AIR FORCE WESTERN TEST RANGE (AFWTR)
Your satellite tracking list
STARLINK-5129
Track 1 satellite(s)




NASA's NSSDC Master Catalog

Two Line Element Set (TLE):
1 26094U 00004M   25181.57327970  .00000550  00000-0  16897-3 0  9996
2 26094 100.1863 122.1149 0032807 112.3374 248.1295 14.46456899334381
Source of the keplerian elements: AFSPC